{"data":{"norad_id":68305,"epoch":"2026-09-20T01:52:09.975072Z","epoch_age_seconds":84877,"freshness":"FRESH","line1":"1 68305U 26057M   26263.07789323  .00017934  00000+0  55620-3 0  9994","line2":"2 68305  97.2828  27.4862 0000868 255.9386 104.1761 15.33464015 28382","mean_motion":15.33464015,"eccentricity":8.68e-5,"inclination_deg":97.2828,"raan_deg":27.4862,"arg_perigee_deg":255.9386,"mean_anomaly_deg":104.1761,"bstar":0.0005562,"rev_number":2838,"period_min":93.905040217067,"perigee_km":464.89257327247,"apogee_km":466.0806263294,"semimajor_km":6843.6235998009,"source":"CELESTRAK","updated_at":"2026-09-20T09:00:43.856016Z"}}